This is the latest recevied weather packets stored in our database for station/object DJ8HS-1. If no packets are shown the sender has not sent any weather packets the latest 1 day(s).
| Time | Temp. | Humidity | Pressure | Rain* | Wind** | Luminosity | Snow |
|---|---|---|---|---|---|---|---|
| 1777984868 | 20° C | 59% | 0 hPa | 0 mm | 0.89 m/s, 251° | - | - |
| 1777984568 | 20° C | 56% | 0 hPa | 0 mm | 0.89 m/s, 203° | - | - |
| 1777984267 | 20° C | 54% | 0 hPa | 0 mm | 0.45 m/s, 298° | - | - |
| 1777983967 | 20.56° C | 53% | 0 hPa | 0 mm | 0.89 m/s, 275° | - | - |
| 1777983667 | 20.56° C | 51% | 0 hPa | 0 mm | 0 m/s | - | - |
| 1777983366 | 20.56° C | 51% | 0 hPa | 0 mm | 0 m/s | - | - |
| 1777983066 | 20.56° C | 51% | 0 hPa | 0 mm | 0.45 m/s, 212° | - | - |
| 1777982766 | 20.56° C | 51% | 0 hPa | 0 mm | 0 m/s | - | - |
| 1777982465 | 20.56° C | 51% | 0 hPa | 0 mm | 0 m/s | - | - |
| 1777982165 | 21.11° C | 50% | 0 hPa | 0 mm | 0.89 m/s, 286° | - | - |
| 1777981865 | 21.11° C | 49% | 0 hPa | 0 mm | 0.45 m/s, 157° | - | - |
| 1777981565 | 21.11° C | 49% | 0 hPa | 0 mm | 1.34 m/s, 239° | - | - |
| 1777981264 | 21.67° C | 49% | 0 hPa | 0 mm | 1.34 m/s, 248° | - | - |
| 1777980964 | 22.22° C | 48% | 0 hPa | 0 mm | 0.89 m/s, 237° | - | - |
| 1777980664 | 21.67° C | 48% | 0 hPa | 0 mm | 0 m/s | - | - |
| 1777980363 | 21.67° C | 47% | 0 hPa | 0 mm | 1.34 m/s, 270° | - | - |
| 1777980063 | 22.22° C | 47% | 0 hPa | 0 mm | 0 m/s | - | - |
| 1777979763 | 22.78° C | 44% | 0 hPa | 0 mm | 0.45 m/s, 163° | - | - |
| 1777979463 | 23.33° C | 41% | 0 hPa | 0 mm | 0.89 m/s, 257° | - | - |
| 1777979162 | 23.89° C | 39% | 0 hPa | 0 mm | 0.89 m/s, 247° | - | - |
| 1777978862 | 24.44° C | 39% | 0 hPa | 0 mm | 2.24 m/s, 192° | - | - |
| 1777978562 | 24.44° C | 39% | 0 hPa | 0 mm | 2.24 m/s, 195° | - | - |
| 1777978261 | 24.44° C | 39% | 0 hPa | 0 mm | 0 m/s | - | - |
| 1777977961 | 24.44° C | 38% | 0 hPa | 0 mm | 1.79 m/s, 168° | - | - |
| 1777977661 | 24.44° C | 38% | 0 hPa | 0 mm | 0 m/s | - | - |
* Rain latest hour (hover to see other rain measurements)
** Current wind speed in m/s (hover to see current wind gust speed)